Torna al catalogo

ARIANE 44L+ DEB

AttivoGTO
NORAD 23241·DEBRIS·🇫🇷 France

Lanciato Apr 15, 1992 da Guiana Space Centre

Loading…

TLE

In scadenzaSource: Space-Track

Epoca: Sep 14, 2026, 13:19 UTC

1 23241U 92021L   26257.55492441  .00000334  00000-0  27956-1 0  9992
2 23241   3.6330 266.2271 7046189 332.9091 124.3748  2.24742671266049

Traccia ARIANE 44L+ DEB in tempo reale con AllMySat

Download on the App Store